#timestamp,LO_Frequency,Hit 
1500181215.5,286046998.9,N
1500181235.4,286047000.0,N
1500181255.2,286047000.6,N
1500181275.0,286046999.0,N
1500181275.9,286046999.0,N
1500181295.8,286046997.8,N
1500181315.6,286046995.4,N
1500181335.4,286046996.0,N
1500181355.3,286046997.0,N
1500181375.1,286046996.5,N
1500181376.0,286046996.5,N
1500181395.8,286046998.0,N
1500181415.7,286046997.4,N
1500181435.5,286046995.9,N
1500181455.3,286046996.3,N
1500181475.1,286046996.7,N
1500181495.9,286046996.5,N
1500181515.7,286046999.0,N
1500181535.5,286046996.5,N
1500181555.4,286046999.3,N
1500181575.2,286046995.0,N
1500181595.0,286046995.4,N
1500181595.9,286046995.4,N
1500181615.8,286046997.0,N
1500181635.6,286046997.2,N
1500181655.4,286046995.7,N
1500181675.3,286046997.2,N
1500181695.1,286047005.5,N
1500181696.0,286047005.5,N
1500181715.8,286047009.4,N
1500181735.7,286047018.0,N
1500181755.5,286047022.9,N
1500181775.3,286047031.4,N
1500181795.2,286047035.1,N
1500181815.9,286047039.0,N
1500181835.7,286047043.5,N
1500181855.5,286047045.1,N
1500181875.4,286047047.1,N
1500181895.2,286047043.0,N
1500181915.0,286047047.5,N
1500181915.9,286047047.5,N
1500181935.8,286047044.8,N
1500181955.6,286047043.6,N
1500181975.4,286047042.8,N
1500181995.3,286047040.3,N
1500182015.1,286047038.8,N
1500182035.8,286047035.3,N
1500182055.7,286047034.0,N
1500182075.5,286047039.0,N
1500182095.3,286047044.2,N
1500182115.2,286047046.1,N
1500182135.9,286047049.8,N
1500182155.7,286047051.4,Y
1500182175.6,286047035.9,N
1500182195.4,286047039.2,N
1500182215.2,286047040.3,N
1500182235.1,286047042.1,N
1500182236.0,286047042.1,N
1500182255.8,286047046.0,N
1500182275.6,286047047.6,N
1500182295.5,286047045.8,N
1500182315.3,286047040.5,N
1500182335.1,286047038.2,N
1500182355.8,286047036.8,N
1500182375.7,286047038.6,N
1500182395.5,286047041.0,N
1500182415.3,286047042.3,N
1500182435.2,286047041.5,N
1500182455.0,286047047.2,N
1500182455.9,286047047.2,N
1500182475.7,286047046.9,N
1500182495.6,286047045.5,N
1500182515.4,286047041.9,N
1500182535.2,286047040.1,N
1500182555.1,286047040.6,N
1500182556.0,286047040.6,N
1500182575.8,286047037.6,N
1500182595.6,286047032.0,N
1500182615.5,286047034.3,N
1500182635.3,286047038.9,N
1500182655.1,286047040.2,N
1500182675.9,286047043.7,N
1500182695.7,286047048.2,N
1500182715.5,286047055.5,Y
1500182735.4,286047033.4,N
1500182755.2,286047034.5,N
1500182775.0,286047032.7,N
1500182775.9,286047032.7,N
1500182795.8,286047030.3,N
1500182815.6,286047033.0,N
1500182835.4,286047034.0,N
1500182855.3,286047036.2,N
1500182875.1,286047037.1,N
1500182876.0,286047037.1,N
1500182895.8,286047042.7,N
1500182915.7,286047046.0,N
1500182935.5,286047048.1,N
1500182955.3,286047052.6,Y
1500182975.2,286047037.7,N
1500182995.9,286047040.7,N
1500183015.7,286047043.3,N
1500183035.6,286047052.0,Y
1500183055.4,286047029.6,N
1500183075.2,286047021.7,N
1500183095.1,286047019.7,N
1500183096.0,286047019.7,N
1500183115.8,286047020.0,N
1500183135.6,286047018.9,N
1500183155.5,286047019.4,N
1500183175.3,286047021.2,N
1500183195.1,286047019.4,N
1500183215.9,286047019.9,N
1500183235.7,286047017.5,N
1500183255.5,286047010.9,N
1500183275.4,286047004.4,N
1500183295.2,286046998.5,N
1500183315.0,286046995.8,N
1500183315.9,286046995.8,N
1500183335.8,286046993.4,N
1500183355.6,286046990.2,N
1500183375.4,286046990.6,N
1500183395.3,286046988.8,N
1500183415.1,286046992.3,N
1500183416.0,286046992.3,N
1500183435.8,286046993.5,N
1500183455.6,286046996.7,N
1500183475.5,286047000.8,N
1500183495.3,286047004.1,N
1500183515.1,286047002.7,N
1500183535.9,286046996.1,N
1500183555.7,286046994.7,N
1500183575.5,286046989.0,N
1500183595.4,286046988.5,N
1500183615.2,286046986.9,N
1500183635.0,286046985.9,N
1500183635.9,286046985.9,N
1500183655.8,286046985.3,N
1500183675.6,286046985.2,N
1500183695.4,286046977.5,N
1500183715.3,286046977.3,N
1500183735.1,286046980.3,N
1500183736.0,286046980.3,N
1500183755.8,286046981.3,N
1500183775.7,286046977.4,N
1500183795.5,286046981.5,N
1500183815.3,286046979.6,N
1500183835.2,286046978.9,N
1500183855.9,286046980.8,N
1500183875.7,286046979.2,N
1500183895.6,286046975.8,N
1500183915.4,286046976.9,N
1500183935.2,286046978.4,N
1500183955.0,286046980.0,N
1500183956.0,286046980.0,N
1500183975.8,286046973.1,N
1500183995.6,286046965.5,N
1500184015.4,286046962.8,N
1500184035.3,286046961.7,N
1500184055.1,286046965.5,N
1500184075.8,286046962.2,N
1500184095.7,286046962.4,N
1500184115.5,286046967.0,N
1500184135.3,286046970.8,N
1500184155.2,286046967.7,N
1500184175.0,286046964.5,N
1500184175.9,286046964.5,N
1500184195.7,286046965.1,N
1500184215.6,286046965.3,N
1500184235.4,286046965.0,N
1500184255.2,286046968.1,N
1500184275.1,286046969.0,N
1500184276.0,286046969.0,N
1500184295.8,286046962.8,N
1500184315.6,286046958.0,N
1500184335.5,286046955.4,N
1500184355.3,286046958.6,N
1500184375.1,286046963.0,N
1500184395.9,286046970.3,N
1500184415.7,286046967.9,N
1500184435.5,286046965.2,N
1500184455.4,286046961.2,N
1500184475.2,286046958.1,N
1500184495.0,286046962.1,N
1500184495.9,286046962.1,N
1500184515.8,286046965.5,N
1500184535.6,286046963.4,N
1500184555.4,286046960.2,N
1500184575.2,286046955.5,N
1500184595.1,286046954.7,N
1500184596.0,286046954.7,N
1500184615.8,286046958.9,N
1500184635.6,286046958.9,N
1500184655.5,286046959.8,N
1500184675.3,286046967.0,N
1500184695.1,286046968.2,N
1500184715.9,286046972.8,N
1500184735.7,286046977.5,N
1500184755.5,286046982.8,N
1500184775.4,286046988.3,N
1500184795.2,286046988.8,N
